Theta_e
315 312 309 314 312 307 312 313 313 317 333 339 339 340 341 341 341 338 340 337 333 338 338 338 337 333 324 326 327 325 316 310 308 308 308 308 310 310 310 310 310 310 310 313 319 320 317 318 319
312 311 314 316 308 309 310 311 316 317 335 339 338 341 341 343 338 340 338 335 334 338 338 338 337 330 325 328 328 322 313 309 308 308 308 310 310 310 310 310 311 313 313 313 314 315 316 317 316
312 316 321 308 303 309 310 313 333 332 333 332 332 335 340 341 338 338 339 338 335 338 338 338 335 327 327 329 326 317 311 309 308 308 310 311 310 310 311 312 313 313 313 313 313 315 316 318 318
314 316 312 307 309 309 311 312 317 332 330 331 330 329 340 341 339 339 339 340 339 338 338 337 332 325 330 329 323 313 310 309 308 309 311 310 310 311 312 313 314 313 314 315 314 316 316 316 317
315 314 308 308 309 312 327 328 330 331 331 331 332 336 338 338 341 340 338 339 338 338 338 336 327 329 330 326 316 311 309 309 308 310 311 310 311 312 313 314 313 313 315 317 316 315 315 315 314
315 310 308 309 311 321 329 329 329 330 330 328 331 335 336 335 338 336 336 337 336 336 336 331 328 331 327 317 312 310 309 309 309 311 310 311 312 313 314 313 313 314 316 317 317 317 317 317 317
313 310 311 312 312 313 330 329 329 329 329 330 330 334 334 336 335 335 333 333 335 335 331 329 330 327 318 313 312 310 309 308 310 310 310 312 312 313 314 313 314 315 316 317 318 318 318 318 319
315 309 312 311 311 313 327 328 329 328 328 331 334 335 333 333 335 333 330 330 333 329 331 331 327 321 316 314 313 312 309 308 312 310 311 312 313 313 313 314 314 315 316 318 319 320 320 320 320
315 311 311 313 314 325 327 327 328 329 332 334 335 333 332 334 332 332 331 329 325 327 326 325 322 320 318 317 315 311 309 309 313 310 311 312 313 313 313 314 314 315 320 320 320 320 320 320 320
312 310 313 312 318 324 326 326 327 330 331 330 330 331 332 332 334 332 329 328 327 324 322 322 322 320 320 315 311 311 309 313 312 311 312 313 314 313 314 316 320 321 321 321 321 321 321 320 319
313 313 312 314 323 325 325 324 326 329 329 330 329 330 332 333 332 330 329 328 327 325 320 321 322 327 321 314 312 310 311 314 313 314 320 320 319 322 322 322 322 322 322 322 322 321 320 319 318
314 313 313 315 325 325 324 324 321 325 326 331 329 326 328 330 330 330 330 329 328 326 323 321 328 326 321 313 311 310 314 314 317 319 321 323 322 322 323 323 323 323 322 321 321 321 319 319 318
312 314 315 315 325 325 325 323 325 327 327 328 327 326 326 326 327 328 328 325 324 323 322 322 328 325 319 312 312 311 322 323 323 324 323 321 320 320 324 324 323 322 319 320 321 320 320 319 316
317 316 324 324 325 325 324 325 327 327 328 327 328 324 324 323 326 327 325 325 322 322 325 325 324 322 319 313 315 313 321 324 324 326 325 325 323 324 325 324 323 321 319 320 321 321 319 315 312
319 318 323 324 325 325 324 322 326 327 329 328 327 326 324 325 323 323 323 324 322 325 328 323 325 322 318 316 321 321 320 321 322 325 327 325 323 325 324 323 321 321 321 320 318 314 311 311 310
316 314 318 324 324 324 320 323 321 328 329 330 330 329 328 327 322 322 322 324 326 328 325 325 325 322 319 323 325 325 326 326 326 326 326 324 324 323 322 320 321 321 319 314 311 311 310 310 310
313 315 317 323 322 322 320 320 320 328 329 330 331 330 329 328 324 323 323 324 329 328 326 327 326 324 324 324 325 326 328 329 329 326 321 320 320 323 323 323 322 320 312 311 311 310 310 309 304
317 317 316 317 316 320 322 319 322 325 328 329 330 330 329 327 326 323 323 326 328 327 327 326 328 326 324 325 325 328 329 328 325 321 321 320 320 321 322 321 317 311 311 311 310 309 305 301 299
318 318 318 317 317 319 318 318 322 323 325 326 328 330 331 329 329 328 326 326 326 329 329 328 327 326 324 325 326 328 327 323 321 322 321 320 320 320 317 312 311 311 311 310 308 305 300 299 297
319 319 319 317 315 315 316 317 320 321 324 327 328 328 330 331 329 330 329 328 327 327 328 329 327 325 325 325 325 326 325 323 322 321 320 318 316 313 311 311 311 311 310 309 307 302 299 297 296
318 319 318 319 317 314 315 317 316 316 323 325 326 328 328 329 330 330 329 329 329 327 323 322 321 321 324 325 325 326 324 322 322 321 321 317 313 312 311 311 311 310 310 309 308 301 298 295 295
319 318 318 318 317 313 314 316 317 316 321 322 325 324 325 326 328 330 330 328 328 327 325 323 319 319 320 323 326 326 324 322 322 323 320 317 314 312 311 312 310 310 307 306 301 297 295 294 295
318 319 318 319 319 317 317 315 314 318 316 322 323 324 324 325 326 328 329 328 328 329 327 325 324 323 322 323 327 327 324 322 322 322 318 316 314 312 312 311 308 304 304 302 296 294 293 294 296
318 319 317 317 318 318 320 317 316 318 318 318 323 323 324 324 325 326 326 327 328 329 328 327 328 328 326 326 327 327 323 321 322 320 317 316 314 313 312 308 305 303 303 295 295 293 293 294 297
317 315 316 317 318 318 319 319 318 316 316 317 317 323 324 325 325 324 325 325 327 327 328 328 329 328 328 328 329 327 324 321 323 319 318 316 314 313 308 304 302 306 299 298 294 293 292 293 295
319 316 316 320 318 318 320 322 319 318 318 318 319 320 322 323 324 325 325 325 325 326 327 329 329 329 328 328 327 325 323 324 323 321 318 315 313 308 303 301 304 300 295 294 293 292 293 293 295
319 317 316 318 316 319 318 318 315 317 319 318 319 321 323 324 324 326 327 327 328 329 329 329 329 329 327 325 325 326 326 325 324 320 315 313 307 304 305 307 297 297 295 294 293 292 292 293 295
318 317 317 316 321 322 317 316 318 320 319 318 318 320 323 323 325 326 327 328 329 330 331 329 329 328 326 326 325 324 325 322 320 318 314 311 310 309 308 299 300 298 296 294 294 293 292 294 294
318 317 315 315 314 316 316 317 312 317 318 317 317 320 321 325 326 327 328 329 330 331 331 329 328 327 327 326 325 323 320 318 315 314 311 309 309 307 300 303 300 298 295 295 295 293 293 293 293
318 318 315 314 316 312 312 315 313 312 313 316 321 321 322 323 325 326 329 330 330 330 330 329 328 328 327 325 323 320 318 315 314 312 310 308 305 301 302 300 299 298 295 295 294 294 294 293 293
Wind_Speed
3 4 1 2 3 5 2 6 3 7 6 4 1 2 6 7 3 2 7 32 32 35 36 34 30 27 26 24 21 20 18 19 22 23 23 24 24 25 25 27 28 29 28 27 25 23 20 18 17
2 0 2 3 4 3 5 5 5 7 3 10 9 6 8 4 4 6 21 25 33 34 36 34 32 29 27 26 23 20 18 20 23 23 22 23 24 26 27 28 30 29 28 26 23 20 19 17 19
0 4 2 4 3 4 4 4 2 1 2 3 1 8 4 4 3 21 19 23 33 35 36 33 32 32 28 26 24 20 19 21 22 22 21 24 25 27 27 28 28 28 27 26 23 20 18 18 18
4 4 4 3 5 5 4 7 10 1 9 21 10 5 6 6 11 16 18 28 33 36 36 37 34 31 28 25 23 21 21 22 22 21 21 24 26 27 28 27 26 26 25 24 22 20 16 15 15
6 3 2 1 4 4 3 6 5 3 8 15 14 5 5 7 4 17 21 30 31 34 33 33 33 32 29 25 22 21 21 21 21 20 23 25 26 26 26 25 24 23 22 21 19 17 15 15 14
4 2 3 1 4 4 3 2 1 4 5 10 9 3 4 5 6 20 27 31 32 31 30 29 29 29 27 24 23 21 20 20 19 20 24 25 25 25 24 23 21 20 18 16 14 12 13 15 14
5 3 4 2 5 5 2 2 5 4 7 3 7 3 3 12 12 23 27 26 28 28 28 25 28 29 27 23 21 21 17 17 18 21 23 24 23 23 21 20 18 16 13 11 10 10 8 9 11
3 3 2 2 3 5 4 2 10 7 2 7 15 8 7 13 15 20 27 21 24 23 26 33 33 30 25 22 16 9 13 17 18 20 22 22 21 20 18 16 15 14 10 9 7 7 6 6 8
5 4 1 3 3 5 6 3 5 6 8 5 3 10 19 24 18 18 24 24 6 15 26 36 33 34 30 24 17 16 17 17 19 21 21 20 18 17 16 14 12 10 8 6 3 3 3 4 5
4 4 5 5 3 5 4 2 4 5 8 7 20 21 22 22 19 21 32 31 30 29 20 28 25 34 25 22 19 18 20 20 20 21 19 18 16 16 14 12 10 9 7 3 1 1 3 4 7
4 4 3 9 9 3 7 4 7 15 3 9 22 20 23 23 25 33 31 31 28 25 32 35 34 23 21 19 19 19 20 20 20 20 18 19 17 15 14 12 8 7 5 2 2 5 5 5 7
2 13 8 8 9 8 6 6 5 2 2 17 23 19 20 23 26 23 27 26 28 24 28 32 19 19 18 17 18 20 22 22 21 19 19 17 15 13 11 9 6 5 4 3 6 6 5 7 9
4 5 8 14 12 7 10 6 7 9 16 23 22 22 19 19 21 22 25 26 26 28 29 28 19 20 18 18 20 22 24 23 21 19 16 14 13 11 9 8 7 6 4 6 8 8 8 10 10
4 10 5 6 15 10 9 7 6 8 23 26 29 26 17 19 25 28 32 25 29 31 28 24 22 20 21 21 21 23 24 21 18 17 13 10 9 8 8 8 10 9 8 8 9 9 10 10 11
7 3 4 4 2 4 17 4 6 24 26 28 29 24 22 27 24 28 29 29 30 28 28 27 24 23 23 25 23 23 22 19 17 15 12 9 11 13 11 12 13 10 8 9 8 7 9 11 13
4 4 3 2 2 5 2 3 4 29 25 22 25 25 24 28 26 28 32 30 28 27 29 27 24 25 26 25 23 22 21 20 17 16 13 14 15 15 15 13 12 9 9 9 8 9 12 15 17
6 2 3 1 6 2 1 6 8 32 26 23 27 26 25 31 28 30 33 31 30 29 28 27 26 26 26 23 21 21 22 20 20 16 15 17 18 19 16 14 12 10 9 8 10 13 16 17 18
3 4 3 3 3 6 4 2 12 29 23 26 29 27 27 32 31 34 34 33 30 29 30 27 28 28 27 24 26 24 23 22 21 18 14 12 13 15 14 11 11 9 7 10 15 18 18 19 20
3 2 2 4 5 5 8 5 14 21 17 17 26 30 32 34 30 31 33 33 34 34 34 31 31 31 30 30 31 29 28 24 19 14 9 10 11 11 12 12 10 8 10 15 17 19 20 22 21
6 5 9 9 7 8 7 6 5 12 19 28 31 32 36 36 36 35 34 35 34 36 37 36 34 31 32 32 31 31 28 25 17 11 12 13 13 12 11 11 10 11 14 17 22 24 24 23 22
2 3 7 8 4 4 6 3 4 4 10 20 25 37 37 40 42 41 38 38 35 37 34 36 37 35 35 34 33 31 29 23 20 17 17 15 13 13 12 12 12 13 16 19 24 25 24 22 21
5 3 6 4 1 2 4 3 4 6 13 9 25 29 38 43 43 44 45 44 43 41 37 37 39 35 35 35 35 34 34 32 27 20 19 16 17 15 13 14 14 15 16 21 24 23 22 21 18
9 3 5 1 3 3 4 4 5 0 8 15 21 34 36 44 46 46 48 46 44 44 39 39 39 38 35 37 36 34 34 31 25 22 21 20 19 16 16 15 14 14 18 22 21 20 20 17 14
3 2 4 4 2 2 3 4 5 5 12 11 21 31 37 40 45 45 44 44 44 45 42 39 40 30 33 34 32 35 33 29 27 26 25 23 20 19 18 17 15 14 18 20 22 20 17 16 14
5 5 3 4 4 4 2 1 8 7 8 9 12 30 40 39 40 45 46 48 45 45 42 41 32 33 31 29 32 29 32 29 28 27 28 27 25 22 20 16 15 21 17 22 19 17 16 15 15
1 5 4 3 3 4 3 4 6 5 10 13 16 19 25 28 40 45 46 45 44 41 39 39 28 27 25 30 30 27 29 31 31 31 32 29 26 21 16 13 21 16 15 15 15 16 15 15 14
3 2 3 6 3 2 3 6 10 6 4 9 10 15 17 19 29 42 43 42 39 35 33 25 25 27 25 29 27 28 30 30 29 31 30 28 22 18 18 20 8 12 15 14 16 15 15 14 13
2 6 1 3 2 3 4 4 5 5 6 3 7 12 15 19 24 31 36 37 37 31 29 23 26 25 25 30 26 27 29 28 29 31 32 29 27 23 22 9 11 12 12 14 16 15 15 15 17
2 2 3 4 5 4 1 5 7 6 5 7 10 6 13 19 22 24 27 33 34 30 29 24 26 27 29 30 27 30 29 29 30 30 29 28 24 21 17 17 11 10 13 15 18 17 16 16 18
3 2 5 4 4 1 4 6 4 8 6 8 12 11 11 17 20 21 28 35 36 34 32 30 27 30 33 32 30 26 25 27 28 30 28 24 22 18 17 13 10 10 13 17 20 17 17 18 18
Wind_Direction
293 305 223 151 63 63 250 256 258 293 341 358 170 116 107 77 103 206 162 168 175 166 166 166 164 164 159 151 147 143 138 134 132 130 127 122 118 114 112 109 106 103 99 99 100 98 93 87 79
333 108 128 101 88 68 271 269 263 254 170 101 83 71 36 64 57 131 154 167 170 168 165 166 166 162 162 152 146 144 141 137 134 131 127 121 119 116 114 112 107 104 100 98 100 99 96 89 88
76 135 73 84 108 189 233 251 275 302 3 311 162 72 69 52 99 154 168 166 170 170 168 168 169 167 163 152 146 144 142 136 134 130 129 125 122 120 117 113 110 105 100 97 97 96 96 88 84
123 124 66 86 232 258 228 280 278 237 69 25 358 38 63 96 132 168 165 163 171 172 172 171 168 159 158 153 147 143 140 139 137 135 132 128 125 125 121 116 111 105 100 98 99 96 90 92 79
130 95 74 152 278 249 264 302 331 32 112 29 13 44 55 18 198 174 173 170 173 177 173 170 169 163 157 146 142 140 139 140 140 138 134 131 129 129 123 118 111 106 102 97 94 90 86 84 78
103 94 54 268 259 266 255 17 61 80 86 62 35 47 44 129 141 162 174 176 181 177 170 170 170 155 144 139 139 135 139 142 143 138 137 136 132 129 126 117 113 106 99 95 88 85 80 73 65
110 91 194 243 256 304 222 107 101 91 103 55 199 84 100 116 150 163 167 177 178 167 163 160 160 145 135 133 134 136 128 144 144 143 141 134 134 132 126 121 112 103 99 86 85 87 78 64 48
168 109 216 247 241 273 233 194 135 143 124 126 150 162 161 136 163 165 175 159 161 162 167 155 144 128 127 112 95 110 160 156 149 143 142 140 136 132 125 116 111 111 104 100 96 88 71 45 14
196 73 251 247 214 245 223 167 55 57 91 51 166 153 155 150 162 152 159 153 164 130 101 118 119 120 125 126 155 174 165 154 149 148 146 141 137 131 128 132 130 124 128 112 91 56 21 5 347
146 118 235 219 207 234 164 108 139 112 108 77 96 122 145 161 171 167 153 148 137 124 102 138 129 138 146 161 165 165 161 160 156 152 147 145 141 141 145 147 141 144 151 137 72 300 289 317 327
198 207 213 262 246 215 146 199 175 136 112 165 148 138 148 163 164 164 166 164 155 132 127 133 150 159 163 171 167 165 161 161 155 154 150 150 149 150 161 159 168 171 172 195 248 271 278 303 320
237 246 220 254 187 134 172 120 68 122 111 164 146 129 147 159 165 161 169 165 169 186 173 165 161 164 167 174 173 169 167 166 164 163 166 173 168 172 173 183 188 196 190 264 272 239 243 288 301
214 276 262 235 168 121 108 83 102 86 137 152 139 137 143 158 163 168 155 150 164 162 162 173 180 172 173 181 180 175 171 173 177 176 179 183 181 189 200 200 206 214 259 257 231 249 277 294 297
301 286 139 140 154 147 122 129 85 126 142 149 151 144 161 159 171 165 162 173 169 168 173 171 180 182 184 182 181 182 181 182 183 188 192 196 203 214 216 220 229 250 267 245 245 264 281 289 298
310 66 53 82 186 124 129 78 137 158 155 155 167 162 171 185 179 172 168 177 175 174 177 180 180 184 189 184 185 186 188 193 199 196 199 205 218 227 221 236 237 248 251 250 260 280 293 297 299
29 55 53 246 140 169 144 135 137 166 161 178 187 187 191 192 187 185 180 180 184 185 186 183 184 186 188 190 191 193 196 201 202 206 213 219 223 231 241 235 239 248 246 261 288 300 303 304 306
8 134 100 347 211 61 355 131 178 177 182 181 183 191 195 193 200 197 193 193 195 195 193 191 188 191 192 198 206 205 204 205 210 210 209 234 231 232 237 240 246 235 258 286 304 303 303 309 318
20 29 17 199 264 168 220 260 168 178 183 184 184 188 196 196 198 196 199 201 201 201 201 198 197 199 204 209 211 209 208 209 213 223 235 232 229 227 232 229 232 250 279 301 302 308 314 320 322
58 41 334 300 238 177 198 186 185 184 190 185 190 193 200 204 201 196 201 202 202 200 203 203 201 203 205 207 208 211 215 214 218 239 237 209 212 212 214 227 245 268 295 297 314 320 317 316 317
21 352 324 301 303 160 178 214 174 177 197 196 198 199 203 208 207 204 203 206 204 202 204 207 209 211 210 215 217 221 224 226 235 226 224 215 216 217 228 242 260 284 297 321 320 314 313 317 321
268 233 252 225 336 41 113 353 145 213 209 218 212 206 207 209 206 204 205 206 206 205 205 210 215 217 219 219 222 225 223 226 225 223 231 214 218 225 232 247 267 289 306 312 311 310 313 314 314
310 223 246 268 97 188 57 253 264 197 212 206 220 206 208 212 212 210 207 206 209 210 209 210 214 219 222 219 223 226 226 227 234 248 228 215 220 227 241 255 271 288 306 312 312 310 309 308 307
234 267 269 145 122 84 350 71 273 95 220 221 210 216 212 211 210 210 213 213 211 213 213 214 216 217 219 220 224 229 231 234 237 239 220 222 227 236 252 262 278 295 309 307 304 308 306 305 305
212 122 41 58 72 48 231 136 275 194 221 221 218 214 213 210 213 213 216 216 216 217 216 219 219 230 221 221 229 236 232 232 236 229 220 227 237 246 247 253 264 289 306 311 311 304 305 307 309
68 55 356 357 10 217 9 50 234 243 241 216 205 210 216 212 209 211 213 216 218 220 219 222 231 232 224 228 230 237 232 234 238 233 229 231 233 237 240 249 278 301 308 301 301 304 303 301 300
143 140 154 229 187 263 336 249 259 241 296 264 246 214 216 221 216 213 213 215 217 216 217 225 229 234 225 231 230 225 226 231 238 236 229 231 235 232 234 269 291 307 296 297 305 307 303 302 298
175 197 170 102 352 54 251 289 310 316 82 98 130 163 183 200 208 215 216 215 212 211 221 240 232 227 227 226 224 229 230 239 238 232 226 231 223 235 266 287 299 310 309 313 317 309 306 304 308
172 160 59 16 168 248 283 280 244 321 333 124 167 185 192 199 208 214 216 216 213 220 229 240 235 233 224 221 230 231 233 233 229 230 224 225 241 255 274 245 273 290 314 320 324 313 315 309 308
150 137 62 118 135 179 217 265 220 239 263 282 300 257 224 204 204 207 215 218 216 225 231 238 229 224 226 227 234 228 223 222 221 223 228 238 250 255 243 277 266 293 322 320 321 316 321 312 313
150 154 147 128 227 197 158 268 249 239 277 279 275 289 245 223 212 212 213 211 216 222 231 233 230 228 230 225 225 224 234 222 224 230 237 244 252 248 274 258 268 306 314 315 313 310 319 324 319